DELTA 1 DEB, 40771

Orbit data source: Space-Track

DELTA 1 DEB, 40771 is space debris in SSO originally from a launch on Thu, 29 Jul 1976 UTC launched from the Air Force Western Test Range (AFWTR). Debris objects in space refer to the collection of defunct objects orbiting the Earth. Examples of debris include non-operational satellites, rocket bodies, and fragments generated from explosions, collisions, or faulty payload assembly.

Loading next visibility...
Identifier
40771, 1976-077GQ
Orbit
SSO
Country
Flag of USUS
Related business
Manufacturer
Unknown
Mission
Spacecraft
Bus & Motor
Unknown
Mass
Unknown
Launch date (UTC)
1976-07-29 (50 years ago)
Launch vehicle
Unknown
Launch site
Air Force Western Test Range (AFWTR)
Object type
Payload
Rocket body
Debris
Shape & HBR
Unknown shape, 0.1 m
Radar Cross Section
Medium (>0.1 m² and <1 m²)

Expand to show TLE details & history
Last TLE update: 8 hours ago

TLE from 8 hours ago
0 DELTA 1 DEB
1 40771U 76077GQ  26256.40292997 -.00000008  00000-0  28292-3 0  9994
2 40771 102.2095 237.5316 0014726  52.1238 105.9173 12.40121097549672
Epoch: 2026-09-13T09:40Z
TLE epoch observation values (Epoch: 2026-09-13T09:40:13.149Z)
Latitude
21.29098°
Longitude
-75.10778°
Altitude
1,511.566 km
Speed
7.109 km/s
True Right ascension
04h 09m 22s
True Declination
21° 11' 10"
Sunlit
Object was in daylight at epoch
Visualization orbit readout
Latitude
Unknown
Longitude
Unknown
Altitude
Unknown
Speed
Unknown
Apparent Right ascension
Unknown
Apparent Declination
Unknown
Sunlit
N/A
Visualization observer readout
Local Sidereal Time
10:30:30
Azimuth
Unknown
Elevation
Unknown
Doppler factor
Unknown
Orbital elements
Apogee altitude
1,515.284 km
Perigee altitude
1,492.07 km
Semi-major axis
7,881.814 km
Eccentricity
0.00147
Inclination
102.2095°
RAAN
237.5316°
Arg. of periapsis
52.1238°
True anomaly
106.0795°
Mean anomaly
105.9173°
Eccentric anomaly
105.99841°
Mean motion
3.10173 °/min
Orbital period
116.06 mins
BSTAR
0.00028292
Loading maneuver chart data...
Computing Atmospheric mass density...
Loading historical data...
Loading historical data...
Loading historical data...
Loading historical data...
Loading historical data...
Loading historical data...
Loading historical data...

Documentation

Showing up to 5 results
|